Voltar ao catálogo

FENGYUN 1C DEB

AtivoSSO
NORAD 30942·DEBRIS·🇨🇳 China

Lançado May 10, 1999 de Taiyuan Satellite Launch Center

Loading…

Próximas Passagens (próximas 24 horas)

TLE

AtualizadoSource: Space-Track

Época: Sep 14, 2026, 23:12 UTC

1 30942U 99025BAG 26257.96706516  .00000331  00000-0  17597-3 0  9994
2 30942  98.6928 254.0042 0137408  36.7135 351.1048 14.15095464  5069

Acompanhe FENGYUN 1C DEB em tempo real com AllMySat

Download on the App Store